Wind_Speed
9 8 8 8 7 7 7 6 6 6 6 5 4 3 3 4 5 5 5 3 3 2 2 3 4 5 5 6 5 4 2 2 1 1 1 2 4 4 5 5 5 4 4 3 5 6 6 7 6 6 6 8 8 9 10 10 11 13 15 17 19 19 19 19 20 22 24 24 24 24 25 28 29 28 28 28 28 27 27 26 26 25 21 21 21 19 20 20
8 8 7 7 6 6 6 5 5 5 5 4 4 3 4 4 4 5 4 3 3 3 3 5 5 6 6 6 6 4 3 3 3 2 1 3 3 4 4 5 5 5 4 5 6 7 8 8 8 8 7 8 11 11 11 12 12 14 16 18 18 18 19 20 21 23 24 25 26 27 28 29 28 26 28 28 26 27 27 25 25 24 20 21 22 21 21 21
7 7 7 6 6 5 5 5 4 4 4 3 3 3 3 4 3 2 2 2 3 3 4 5 6 6 6 6 6 5 4 4 3 2 3 3 4 4 5 5 6 6 5 6 6 7 8 9 9 9 9 10 13 12 13 13 14 15 17 19 18 18 19 20 21 22 24 26 26 26 27 28 27 26 27 27 26 27 26 22 21 23 20 21 24 24 23 23
6 6 6 6 5 5 5 4 4 3 3 3 2 3 3 3 2 1 1 1 2 3 4 5 5 5 6 6 6 5 4 3 2 3 3 4 4 4 4 5 6 6 6 6 7 7 8 10 10 10 11 12 14 15 14 14 15 16 17 18 18 19 20 20 21 22 23 26 26 25 26 26 26 27 27 27 28 25 21 18 19 23 22 21 24 26 26 24
6 6 6 5 5 5 4 4 3 2 2 2 2 2 2 1 1 1 1 2 2 3 3 4 4 5 5 5 6 5 4 3 2 3 4 4 4 4 4 5 5 6 6 6 7 7 8 10 10 12 12 12 15 16 16 15 16 17 18 18 19 20 21 20 20 22 23 25 26 26 26 26 25 27 26 27 28 22 17 17 19 21 21 20 22 25 25 23
6 6 6 5 5 5 4 4 3 2 2 2 2 1 1 0 1 1 2 2 2 2 3 4 4 4 5 6 6 5 4 4 3 4 5 5 5 5 6 6 6 6 6 6 7 8 9 10 11 13 13 13 15 16 15 15 16 18 18 17 18 20 20 20 20 21 22 23 24 25 25 24 24 25 26 27 25 20 16 16 18 19 19 20 21 23 24 23
6 6 6 6 5 5 5 4 3 2 2 2 1 1 0 1 1 2 2 2 2 2 3 4 4 4 5 6 6 5 4 4 3 5 6 5 6 7 7 8 7 7 7 7 8 9 10 12 12 13 13 13 14 14 14 15 17 19 18 17 17 19 20 20 21 21 21 21 22 23 23 22 22 25 27 24 19 18 18 17 18 19 19 21 22 22 23 23
8 7 7 6 6 5 5 4 3 2 2 1 1 1 1 2 2 1 2 2 2 3 3 3 4 4 6 6 5 4 5 4 4 6 6 5 6 6 8 9 8 7 8 8 9 9 10 11 11 12 12 13 13 13 14 14 15 17 18 18 18 19 20 19 19 18 19 18 19 21 20 19 21 25 24 20 16 17 19 20 21 21 20 22 24 24 24 24
9 8 7 7 6 6 5 4 3 3 2 1 1 1 1 2 1 1 1 1 1 2 3 3 4 5 6 5 5 5 5 6 6 5 5 5 6 6 8 9 9 9 9 9 9 10 9 10 11 11 12 12 11 12 13 15 15 16 17 17 18 18 17 17 15 15 17 16 18 20 19 19 21 23 21 20 20 19 20 23 24 24 24 25 25 25 26 27
9 8 8 7 7 6 5 4 4 3 2 2 1 1 1 1 1 1 1 0 1 2 3 4 5 5 5 5 6 5 5 6 5 4 4 5 6 7 8 8 10 9 9 9 9 9 9 9 10 10 10 11 11 12 14 14 15 16 16 16 16 14 14 14 14 15 17 18 19 21 21 20 19 21 21 21 23 24 25 25 26 27 28 28 27 26 26 28
10 9 9 9 8 7 6 5 4 3 3 2 2 2 1 1 1 1 1 1 3 4 5 6 5 5 5 6 6 5 4 5 4 3 4 6 7 7 7 7 9 8 8 7 7 7 7 6 7 8 9 10 12 14 14 13 14 15 15 13 11 12 13 15 16 18 19 19 21 24 25 21 19 21 22 22 25 29 30 27 26 27 28 28 27 25 24 25
11 11 11 10 9 8 7 6 5 4 4 3 3 3 3 2 3 3 3 4 5 5 6 5 4 5 5 5 5 5 5 4 4 5 5 5 6 6 6 6 6 6 6 6 5 6 6 7 8 10 11 11 12 12 12 13 13 13 14 12 10 11 12 16 19 18 19 20 22 26 27 22 22 24 24 26 28 28 29 27 25 25 26 26 25 24 22 21
13 13 12 11 9 8 7 6 6 6 5 4 5 4 5 5 5 5 4 4 4 4 4 4 5 6 6 6 7 6 6 5 5 5 5 5 5 5 4 5 4 3 6 6 7 9 10 10 10 12 11 10 11 11 12 11 10 11 13 13 15 15 13 17 20 18 20 21 23 27 29 27 28 26 26 28 27 26 26 24 22 21 20 19 19 19 18 15
14 13 12 10 9 9 8 8 7 7 6 6 6 6 6 6 5 4 4 4 5 5 5 6 8 7 7 8 7 7 7 7 6 6 6 6 5 4 4 4 4 7 10 9 10 11 12 10 10 11 10 10 10 11 12 9 11 15 14 15 19 22 19 18 19 20 22 23 27 29 30 33 32 24 24 25 25 24 21 18 16 15 15 16 15 16 15 12
14 12 12 10 10 9 9 9 9 9 9 8 8 7 6 6 5 5 6 7 7 6 7 9 10 9 9 9 8 9 9 8 7 6 6 6 5 6 6 7 8 11 12 11 11 12 12 10 10 10 10 10 11 13 11 8 15 21 20 20 21 25 24 21 20 23 25 25 29 29 31 37 32 19 16 18 22 23 19 16 15 14 16 17 16 14 13 10
14 13 13 12 11 11 11 11 10 10 10 9 8 7 6 6 6 8 9 9 8 9 11 12 12 11 11 11 11 10 9 7 7 7 7 7 8 9 10 10 10 10 9 9 10 12 14 11 10 11 13 13 13 15 12 11 21 25 25 25 24 26 28 27 25 24 25 26 29 28 32 37 28 18 15 14 18 20 19 19 16 15 16 17 16 15 13 11
15 15 15 14 14 13 12 11 10 10 10 10 9 9 9 9 9 10 11 11 12 14 14 14 14 13 13 13 12 10 9 9 10 10 10 10 10 10 10 9 7 6 5 7 8 11 15 13 12 14 14 15 16 18 18 20 26 27 26 26 26 27 30 32 29 25 26 28 30 29 31 32 24 20 18 17 18 17 20 22 16 16 17 16 15 14 13 14
16 16 16 16 15 14 13 11 10 10 11 11 11 11 11 12 12 12 13 14 14 15 15 15 15 15 15 13 13 12 11 11 10 10 10 10 9 8 8 7 6 4 3 5 6 8 15 16 14 16 16 16 18 22 23 22 24 27 27 27 27 28 30 31 27 26 30 31 31 29 29 26 19 18 18 18 21 20 21 22 19 21 21 19 19 18 17 18
15 15 15 15 14 14 13 12 12 12 13 14 14 14 16 17 17 17 17 17 17 18 18 17 17 19 18 15 15 14 11 10 8 8 9 8 8 7 8 8 8 5 3 6 8 9 15 17 18 21 21 21 22 24 23 21 21 24 25 24 26 30 30 28 24 27 34 34 30 27 28 24 16 15 16 19 25 24 22 22 21 22 22 22 23 25 26 27
15 15 14 14 14 15 15 16 17 19 19 19 20 21 22 22 23 23 22 21 23 24 22 20 21 21 19 16 15 13 10 9 8 8 8 8 8 8 8 10 12 9 5 7 11 12 13 18 24 26 23 22 23 22 22 21 22 23 22 22 25 29 31 27 25 29 32 33 29 26 25 20 15 16 18 24 28 24 22 20 19 19 20 23 25 26 29 31
15 14 14 15 16 18 20 21 22 23 23 23 23 24 25 25 25 25 24 24 26 25 23 22 21 20 17 15 13 11 10 9 8 8 8 9 10 10 9 10 13 13 10 8 10 10 11 19 27 25 21 23 24 23 23 22 22 21 20 23 26 29 31 27 26 28 27 29 27 26 23 15 15 18 18 25 26 21 21 18 17 21 24 27 30 30 30 29
14 14 16 18 21 23 24 24 25 25 25 24 23 24 26 26 26 25 25 26 26 23 22 19 17 15 15 14 12 11 9 7 8 10 10 10 11 12 12 10 12 15 11 8 10 9 11 20 24 21 20 23 24 24 23 21 20 20 21 25 27 28 31 28 27 24 22 24 24 24 25 16 15 18 16 21 22 19 20 19 19 25 28 30 32 31 28 25
18 20 23 25 26 26 26 26 26 26 26 25 24 26 27 27 26 26 26 26 23 21 19 16 14 11 9 9 11 12 10 9 12 14 13 13 13 15 15 9 9 14 12 8 11 13 14 19 21 21 20 19 23 24 21 20 19 21 24 26 28 28 28 29 28 25 20 20 19 23 27 20 17 18 15 15 16 17 19 20 22 27 30 31 32 29 24 23
25 27 28 28 28 27 26 25 25 25 26 26 26 27 27 27 27 26 25 25 22 19 18 15 15 14 10 7 7 10 13 14 16 17 17 19 18 17 18 13 9 14 14 10 12 16 15 14 18 21 20 19 23 23 22 23 20 21 24 25 27 26 24 25 25 25 23 16 14 21 25 24 22 20 17 14 12 15 16 19 24 28 30 31 30 27 22 21
28 29 28 27 26 24 23 22 22 23 23 23 24 24 25 26 26 24 24 23 21 19 19 17 16 18 16 12 8 7 12 16 20 21 21 23 23 20 19 17 15 17 17 11 11 15 13 12 15 19 19 20 21 22 23 25 22 22 22 23 27 26 24 22 18 24 27 18 15 17 13 22 30 23 18 17 15 15 15 19 25 27 27 26 24 23 21 21
26 25 23 21 20 19 19 19 19 18 17 17 18 20 21 21 20 19 19 21 22 22 21 19 18 18 17 17 14 8 10 18 23 24 24 26 24 21 19 19 19 20 19 14 12 14 14 12 13 17 20 21 22 23 24 25 24 24 24 24 26 24 23 21 17 22 25 18 16 13 7 16 32 29 20 19 19 15 15 20 26 25 23 22 20 21 25 27
22 20 18 16 15 16 16 15 15 14 12 11 11 11 10 8 8 6 7 10 16 20 20 20 20 20 17 18 18 14 12 17 23 24 26 28 23 19 18 19 21 22 21 17 14 14 14 12 12 17 22 24 25 25 24 24 23 24 25 26 27 24 23 20 16 19 24 21 13 9 10 13 24 29 21 19 22 16 16 22 25 24 22 22 22 26 31 34
18 17 15 13 12 12 13 12 11 9 7 6 4 5 5 3 3 2 3 4 10 15 16 18 19 18 17 16 18 19 17 18 22 25 27 26 21 17 17 19 21 23 22 18 15 15 15 15 16 19 24 26 26 23 23 23 22 25 26 26 28 24 24 21 14 18 25 21 8 5 12 9 18 30 20 14 23 22 21 25 24 23 22 22 26 32 36 36
15 14 12 10 9 10 10 9 8 7 6 5 4 5 5 6 7 7 8 6 9 13 14 16 16 15 14 13 16 20 20 20 23 24 23 23 21 17 18 20 20 22 23 20 15 15 16 19 20 22 26 28 25 21 22 23 23 25 25 27 27 22 25 21 13 20 22 13 7 6 9 6 16 33 22 11 22 26 27 26 23 24 23 24 32 37 39 37
14 12 11 9 8 7 8 7 7 7 7 6 5 6 7 7 6 7 8 7 10 14 13 14 16 16 13 12 16 20 20 20 23 22 21 23 22 18 19 20 19 19 20 20 17 15 17 20 22 23 26 28 26 22 21 21 22 24 24 29 30 25 27 19 12 20 15 9 9 6 12 11 10 24 21 15 23 29 30 28 22 21 21 27 36 38 38 38
13 11 10 9 8 7 7 7 7 8 7 7 7 8 9 9 8 8 6 4 9 13 13 15 17 18 16 17 19 20 20 21 23 24 24 26 24 21 23 24 24 22 22 23 21 17 15 18 22 24 26 29 29 26 22 21 21 22 24 30 31 28 27 17 13 15 4 7 14 13 22 17 8 17 20 21 28 29 29 29 22 20 25 33 35 33 35 37
12 12 11 10 10 8 8 8 7 7 8 8 9 10 11 14 16 13 6 2 6 11 15 17 19 19 18 19 21 21 22 24 26 26 27 29 28 28 30 30 31 28 26 26 24 20 15 16 20 22 25 29 30 29 27 23 21 19 23 28 22 16 16 11 9 8 3 14 25 24 24 18 16 20 21 27 32 28 25 23 20 22 27 30 29 28 30 31
13 14 13 13 12 11 12 11 9 10 10 9 10 9 13 16 14 13 11 7 6 11 16 17 18 19 18 20 23 23 24 25 26 25 25 28 29 29 29 30 30 27 25 24 23 25 21 17 20 20 24 27 26 27 27 26 24 19 21 26 14 4 6 5 5 4 7 22 38 34 21 15 17 16 20 30 30 21 17 15 15 19 18 18 23 25 25 24
16 16 16 16 15 15 15 14 14 13 11 11 10 10 18 21 13 13 16 12 9 10 15 16 16 18 21 24 25 24 24 24 25 24 24 26 28 28 27 28 28 27 27 23 20 23 19 17 21 20 24 28 25 23 21 24 23 17 20 22 12 4 3 5 5 3 8 23 39 36 16 10 16 18 23 28 21 13 12 13 18 20 17 20 24 26 27 28
19 19 19 18 17 17 15 14 14 13 13 11 10 15 23 20 13 15 17 14 12 10 12 16 16 17 23 25 24 24 24 23 24 24 24 25 28 29 27 28 28 27 28 24 18 17 14 18 21 19 25 31 27 23 21 22 20 17 22 21 14 13 11 12 13 15 16 17 23 26 19 20 26 26 24 22 20 20 19 21 26 26 24 27 28 30 33 33
20 20 19 18 18 16 15 14 11 12 13 8 8 24 29 19 15 17 16 16 16 12 11 14 16 18 22 23 23 24 23 22 23 23 24 23 25 28 26 26 28 28 28 25 20 15 14 21 23 19 26 32 28 24 22 20 19 19 23 22 19 22 19 15 16 18 14 9 11 18 24 28 29 27 22 19 23 24 23 27 31 29 29 31 32 35 36 35
21 21 20 19 18 16 15 14 12 14 11 3 10 28 28 20 20 19 17 18 18 16 16 17 18 19 20 21 23 23 22 23 23 23 25 23 21 26 27 25 27 29 28 26 23 20 21 26 27 23 29 34 30 27 25 19 19 21 23 25 23 21 18 12 8 6 6 6 9 19 25 20 17 19 21 21 25 28 31 35 35 33 33 33 34 34 32 31
23 23 21 20 19 18 16 14 13 12 4 4 20 30 25 21 22 19 19 20 19 20 21 20 20 19 19 20 22 23 23 24 25 23 25 24 20 23 27 26 26 28 29 27 25 27 26 26 28 28 32 35 30 30 31 24 20 21 21 24 21 15 15 12 7 5 6 5 5 17 25 13 10 18 25 25 28 33 36 38 39 39 38 36 35 33 31 30
22 21 21 21 20 20 18 16 14 9 4 14 27 26 22 23 21 20 20 20 20 22 22 22 20 19 20 19 19 23 23 24 26 24 23 24 22 23 26 27 25 26 28 28 27 30 26 19 24 32 36 36 32 32 35 29 24 23 21 23 21 16 16 18 17 13 9 6 3 10 14 3 5 18 28 29 34 36 37 41 43 45 44 40 38 36 36 36
19 20 21 21 19 19 18 13 9 7 13 23 27 23 22 23 21 22 21 20 21 22 21 21 20 19 20 19 17 21 23 23 24 24 23 25 25 25 28 28 26 25 26 27 28 31 28 18 24 37 41 37 34 32 32 29 26 23 22 26 26 24 24 24 27 23 14 8 2 3 6 3 0 14 23 28 35 38 42 45 46 49 49 47 45 44 44 44
15 19 21 19 19 20 16 9 6 13 21 25 25 24 24 23 22 22 21 21 21 20 20 20 19 19 19 20 18 18 20 22 23 23 23 25 26 26 29 29 29 27 26 27 28 29 30 24 27 38 42 39 38 35 31 28 26 23 25 30 31 32 29 18 16 24 24 17 10 7 8 6 6 12 21 29 36 40 46 49 50 52 54 54 53 52 53 54
14 19 20 18 20 20 14 11 15 19 22 24 24 24 23 22 22 21 20 20 19 18 19 18 18 19 19 20 21 18 18 19 21 22 23 24 25 26 29 30 30 30 28 28 28 29 32 29 28 35 40 40 37 35 32 29 30 30 31 35 35 35 32 18 14 23 30 30 25 18 11 10 12 13 21 31 38 43 48 52 56 58 59 60 61 60 61 61
15 19 19 16 20 19 12 15 20 20 21 23 24 23 23 22 21 19 18 18 18 18 18 18 18 19 19 19 21 20 19 18 20 22 22 24 25 26 28 30 32 31 29 30 29 29 29 26 28 37 43 46 45 42 39 36 37 38 39 39 36 34 33 27 26 28 29 31 27 14 8 11 16 18 25 34 39 42 47 53 60 66 66 66 66 65 64 62
15 18 19 17 19 17 15 19 20 19 22 24 23 22 22 20 19 18 18 17 17 17 17 18 18 18 19 19 20 22 21 19 21 23 23 25 26 26 27 31 32 30 31 33 31 29 27 24 26 27 27 35 41 41 43 46 45 43 44 44 40 39 39 32 30 28 24 26 24 11 7 16 23 28 34 39 42 45 47 53 63 72 72 71 69 66 62 59
13 17 21 21 19 16 18 21 19 19 22 22 22 21 19 19 19 17 17 17 16 16 16 17 18 18 19 18 19 22 22 21 22 23 24 26 26 26 28 30 30 30 31 32 31 32 30 30 29 20 10 13 19 24 36 46 46 44 46 46 42 40 39 35 33 28 18 20 23 14 11 22 30 34 38 42 47 51 54 61 70 74 73 72 70 64 60 58
13 17 21 22 20 18 20 21 18 19 22 21 21 20 17 18 18 16 16 15 15 15 15 15 16 16 17 18 18 21 23 23 23 24 25 26 26 28 31 30 29 29 29 30 31 32 33 35 36 29 22 22 27 34 40 41 41 42 43 42 40 40 40 37 32 25 18 21 23 16 16 29 35 39 47 53 59 66 71 74 75 74 73 73 69 63 60 58
14 17 18 18 18 19 20 20 19 19 20 19 19 19 16 16 15 14 15 15 14 14 13 15 16 16 18 20 20 22 24 23 23 24 26 27 28 29 30 29 28 28 28 29 30 32 35 38 39 39 37 37 40 44 43 38 36 36 34 35 38 37 35 30 23 20 20 20 16 15 24 34 39 47 57 63 68 73 76 76 73 71 69 68 65 61 60 60
15 17 18 18 18 18 19 20 19 18 18 18 19 18 16 15 14 13 13 13 14 14 14 16 17 18 20 23 24 26 28 27 27 28 29 30 31 31 31 29 28 29 28 28 30 32 35 37 41 44 46 46 45 44 41 37 35 32 29 30 28 24 24 25 23 25 28 21 15 22 35 37 39 50 61 68 70 69 69 70 68 65 63 62 60 58 59 59
16 17 19 19 20 20 19 19 18 17 17 18 18 16 14 13 13 13 13 12 13 15 16 18 19 20 21 24 26 28 30 31 31 32 33 31 31 33 32 29 30 29 26 27 30 30 33 38 41 44 50 51 46 44 42 40 40 35 26 20 18 17 22 27 29 32 32 26 24 30 38 38 41 55 66 68 65 62 64 67 67 64 63 62 59 57 58 58
17 17 18 19 20 20 19 18 17 15 15 16 15 14 13 12 11 11 13 13 13 15 17 18 19 20 21 24 26 27 28 29 30 32 32 30 30 31 29 28 31 28 24 26 29 28 33 38 39 42 50 52 48 47 46 44 44 34 17 12 17 20 25 31 34 36 34 31 31 34 38 41 48 62 71 68 62 64 68 70 70 67 63 60 58 58 59 59
18 18 17 16 18 19 17 16 15 13 14 14 13 13 12 12 12 11 12 14 14 15 17 19 20 20 21 23 25 26 27 28 28 28 27 25 27 27 24 25 29 27 26 28 28 28 32 35 38 40 44 48 50 49 47 46 42 28 15 17 22 24 31 38 39 38 34 32 33 34 37 47 59 68 71 67 65 67 68 68 67 64 60 58 59 60 61 60
19 18 15 13 15 17 15 14 13 12 13 12 12 12 11 11 12 13 14 15 15 16 18 20 21 22 23 25 27 28 28 28 27 27 25 22 23 24 20 21 25 25 26 28 29 31 32 34 38 36 35 45 49 46 46 45 31 15 10 19 26 29 37 44 46 44 38 31 31 31 38 53 65 69 67 65 64 64 63 63 62 61 58 58 61 63 64 63
Wind_Direction
154 155 155 157 163 168 173 181 187 190 191 195 210 235 255 272 284 293 308 332 1 20 11 357 356 358 354 351 358 358 336 312 327 27 13 336 341 339 339 337 329 318 301 281 261 261 267 266 272 276 281 289 284 277 274 274 271 269 267 267 271 277 282 285 287 287 290 294 295 295 294 295 299 302 302 301 303 306 303 303 303 301 302 299 297 296 293 292
147 149 151 153 159 166 170 174 181 188 191 195 204 226 247 265 278 288 302 330 10 15 8 1 358 358 353 349 349 341 335 332 349 4 339 334 337 335 335 330 322 306 290 281 271 267 268 271 275 278 283 284 283 280 276 276 275 273 273 275 281 287 288 290 291 292 295 297 296 295 295 295 300 303 301 303 307 306 305 312 310 304 303 298 296 294 293 294
139 141 141 145 152 159 157 159 168 174 180 187 198 220 237 249 264 278 297 332 2 2 1 358 351 351 353 352 340 330 333 333 336 337 328 330 329 329 331 329 325 313 299 285 278 274 271 275 276 278 283 281 282 286 283 283 280 276 279 283 291 293 291 294 297 298 300 300 299 299 297 298 303 302 301 305 305 304 313 321 309 300 301 298 296 297 298 298
132 131 131 134 138 139 136 138 145 150 162 172 191 216 230 243 260 297 317 339 356 355 358 352 347 352 356 347 333 326 328 334 335 330 322 316 319 325 330 331 329 322 310 291 281 276 271 276 279 281 283 282 287 293 292 290 285 283 285 289 295 296 296 302 304 304 304 302 302 302 301 302 304 303 305 305 303 311 321 314 299 297 302 300 297 299 302 302
129 126 123 121 122 122 123 123 127 138 152 167 187 202 221 252 311 348 325 339 354 349 348 344 346 356 355 342 331 322 324 341 337 327 318 308 315 324 331 332 330 331 322 307 296 291 285 283 284 285 287 290 292 295 296 294 291 289 291 295 300 301 304 308 308 306 303 301 303 304 303 304 305 305 306 305 308 318 319 305 299 301 304 303 297 298 301 305
131 122 116 115 118 117 117 117 125 141 150 165 173 176 205 263 306 304 312 333 345 335 332 336 346 352 345 337 332 323 325 338 333 335 332 322 327 332 337 337 338 341 332 322 313 307 300 295 293 292 296 298 294 294 296 296 294 294 299 304 304 305 308 309 308 305 302 302 303 303 304 306 309 308 308 311 318 322 316 309 307 305 305 301 295 295 300 303
136 127 120 119 118 113 115 121 133 142 142 146 139 147 208 256 278 292 308 321 322 314 321 332 341 346 342 340 339 338 343 345 346 349 343 335 340 344 344 341 342 339 331 325 313 308 302 299 299 300 302 300 297 298 298 299 299 301 308 311 310 310 310 309 307 305 303 303 304 304 306 310 311 309 314 326 329 319 314 312 310 309 306 303 302 302 302 301
134 130 127 124 121 120 126 132 138 139 135 134 135 172 220 239 255 271 279 284 298 309 321 332 341 343 342 343 347 3 8 2 359 350 342 341 347 350 345 339 335 329 323 318 310 305 301 301 303 303 304 302 303 304 304 305 303 307 311 312 314 312 311 311 310 311 308 308 308 306 309 314 311 311 325 343 336 317 316 317 316 312 306 306 310 309 307 305
130 130 130 129 129 131 135 135 133 127 127 135 154 181 216 223 229 231 235 262 307 322 329 332 344 342 343 357 8 22 21 13 6 352 342 349 353 349 345 338 330 323 318 314 311 307 305 306 306 306 307 308 311 310 313 313 311 312 311 312 313 311 315 317 317 318 314 317 316 310 313 317 313 315 332 346 337 326 323 323 321 314 309 309 308 307 306 305
132 133 133 131 131 131 129 124 120 120 124 134 143 163 200 201 183 178 190 341 337 344 345 345 349 343 354 23 26 26 25 25 17 360 0 5 0 349 345 340 327 318 314 312 311 310 309 308 309 314 317 320 322 321 321 317 315 314 309 313 312 315 329 323 323 326 322 326 323 316 318 321 320 321 331 338 331 325 321 319 316 311 309 308 304 301 299 299
133 132 131 128 126 123 119 117 117 119 123 125 126 127 125 115 119 106 72 40 13 360 354 352 355 2 24 38 37 38 43 44 32 23 24 15 7 350 342 341 326 315 313 312 316 319 320 322 328 337 335 333 332 329 326 318 315 309 307 318 313 320 336 326 326 329 326 330 326 321 319 323 329 328 333 331 323 321 317 313 310 307 305 302 300 296 293 294
129 127 125 122 120 117 115 118 120 124 128 131 125 124 119 101 88 73 54 37 14 2 1 4 17 35 47 58 59 62 63 58 48 42 31 20 11 348 340 346 329 319 322 320 338 352 357 358 0 1 351 345 343 337 330 320 318 313 313 328 323 327 341 335 332 333 333 334 332 327 322 332 342 337 339 332 322 319 313 311 307 303 301 300 298 294 290 291
122 120 119 117 116 115 117 120 125 129 128 123 113 104 96 85 78 70 53 34 22 21 28 46 65 64 73 81 74 69 66 59 53 47 34 30 22 357 356 0 349 10 6 357 14 21 17 15 13 7 358 352 353 347 339 332 336 333 327 336 335 340 356 348 338 338 340 338 339 334 324 336 349 344 343 337 327 320 314 316 314 309 310 312 310 301 294 292
119 118 118 117 118 118 120 120 118 115 110 104 98 93 92 90 85 78 69 67 69 68 72 87 87 79 79 78 72 68 65 59 53 51 46 51 48 34 35 34 46 46 30 26 33 29 24 25 20 11 3 359 3 359 351 350 358 353 346 348 345 344 354 357 345 338 341 340 343 338 321 334 352 348 340 337 334 333 335 341 339 336 341 339 327 311 305 304
119 118 119 119 120 119 114 108 104 103 105 105 104 102 102 103 101 97 92 90 90 91 94 92 87 84 81 75 71 67 63 58 55 60 63 68 65 50 42 43 47 40 35 39 39 33 31 30 21 14 9 5 7 4 359 358 3 1 357 357 355 349 349 358 354 339 338 338 341 339 322 334 356 1 348 341 337 343 353 359 354 345 345 342 332 318 310 306
121 119 118 118 118 115 107 104 103 106 110 112 114 113 112 112 109 105 103 102 98 95 93 88 84 85 80 72 68 67 65 64 68 72 71 68 56 44 38 38 38 38 42 42 36 34 32 28 18 13 11 9 6 3 1 1 2 2 360 357 356 352 347 350 352 342 337 335 339 339 326 335 359 15 15 3 343 345 351 352 348 336 337 342 336 327 320 314
121 118 117 119 119 115 113 112 112 114 115 115 117 118 119 116 111 111 109 103 93 88 85 84 86 84 77 75 74 72 69 66 67 66 65 60 49 41 37 34 34 38 47 38 31 33 29 24 18 15 12 8 4 3 6 5 360 358 358 354 352 352 347 344 345 343 341 336 339 339 331 339 1 13 18 14 357 348 343 344 342 331 336 344 340 333 328 324
120 119 121 124 123 123 123 123 123 123 122 121 120 119 117 113 110 110 103 91 87 88 83 79 86 84 76 77 75 68 63 59 60 60 60 55 47 43 38 32 27 21 39 40 34 33 27 24 24 21 16 8 6 9 12 8 357 353 353 351 349 346 345 344 341 344 344 339 342 342 337 347 5 12 11 6 360 354 344 340 334 328 331 338 344 348 346 341
122 122 124 126 127 127 123 121 120 121 124 123 118 114 107 102 99 95 91 90 90 91 86 80 82 79 73 71 65 60 58 55 55 55 51 45 40 41 37 30 24 16 45 49 40 36 27 26 27 22 16 12 13 15 15 7 356 352 349 347 346 341 343 348 344 347 345 340 347 347 344 359 12 5 358 352 354 354 349 341 331 329 332 338 345 349 349 347
122 122 125 127 126 123 116 113 111 111 114 112 109 105 99 96 94 92 96 98 94 89 85 79 74 72 68 64 60 56 54 51 51 50 45 40 35 31 26 26 23 23 45 45 37 40 31 27 29 25 23 22 20 17 12 5 357 353 348 345 348 344 346 352 350 355 349 339 346 348 348 14 17 352 348 347 348 348 347 343 338 339 343 344 345 343 341 339
126 127 128 127 124 120 114 109 104 104 104 101 101 101 100 101 99 99 100 95 89 82 77 72 69 70 68 64 61 56 50 42 40 47 45 40 34 25 20 24 26 31 46 43 33 40 33 29 31 31 30 27 20 13 8 5 359 357 353 349 354 352 349 353 355 359 352 338 341 343 348 15 12 349 341 340 341 342 344 345 344 346 348 348 347 345 342 338
128 128 127 125 122 118 112 108 105 105 103 102 104 104 103 102 99 97 91 82 77 73 68 65 66 69 67 64 61 56 51 43 43 47 44 38 30 23 19 21 30 36 44 41 30 36 35 34 34 29 25 20 12 5 7 12 5 360 1 356 359 358 350 351 355 359 354 339 337 340 344 355 4 357 345 338 340 344 342 340 343 347 350 350 348 349 346 340
122 122 122 122 118 114 111 110 109 109 109 109 107 103 99 95 92 89 83 78 75 71 66 62 60 58 59 62 57 51 49 48 47 42 37 30 22 23 23 21 28 28 28 23 24 34 40 38 31 20 16 8 360 360 6 16 14 5 4 1 358 357 351 345 347 354 354 346 338 338 341 347 4 7 355 346 344 343 339 336 343 348 349 348 346 346 341 334
117 118 119 118 114 111 111 110 110 111 111 109 104 99 96 93 91 88 86 83 76 71 66 61 59 53 50 52 45 40 37 36 35 30 27 24 20 23 28 32 32 22 20 19 23 33 41 40 28 17 11 360 354 358 3 11 16 9 4 2 356 354 349 338 335 344 350 355 346 338 340 343 356 7 360 357 354 343 337 335 343 346 344 343 341 339 334 329
116 117 118 116 114 112 111 110 110 112 111 108 103 101 99 97 95 92 88 81 70 64 58 52 51 47 45 44 33 22 22 25 27 25 23 21 21 25 29 34 35 26 24 26 26 30 38 39 24 13 6 359 357 0 5 6 7 5 2 0 355 350 346 338 330 338 344 353 354 348 348 335 342 0 3 354 354 347 341 338 341 341 338 338 336 333 332 331
116 117 116 115 115 113 111 110 112 115 115 114 112 112 109 105 102 94 84 73 58 51 46 42 42 38 35 37 34 22 15 19 22 24 25 22 22 25 27 31 33 31 30 32 34 33 35 31 14 5 4 2 3 6 7 3 360 360 356 355 354 347 344 338 326 335 340 342 349 354 5 324 330 351 359 346 349 346 340 339 337 336 334 334 334 333 335 335
115 116 117 118 117 112 110 111 117 122 126 130 128 131 131 125 122 101 81 69 44 36 34 31 34 29 25 31 30 29 31 22 18 23 26 24 23 25 27 30 33 33 31 32 42 41 34 24 5 2 8 8 7 7 4 359 355 355 353 353 351 344 342 336 323 335 336 330 335 343 350 322 316 339 353 339 341 339 329 335 335 332 330 328 331 334 334 333
114 117 119 121 120 119 121 127 139 145 152 163 166 170 179 177 162 114 94 77 26 21 22 23 27 23 22 28 24 26 32 26 22 25 25 23 24 29 32 34 35 33 31 35 47 44 29 19 11 5 9 11 11 7 359 356 353 352 353 350 347 342 340 335 316 328 334 328 325 315 342 336 300 325 347 335 336 339 330 334 336 329 323 323 333 336 334 332
111 115 116 119 125 130 139 151 166 172 173 170 153 147 137 111 106 86 83 76 26 18 17 18 24 26 29 29 21 23 28 28 28 29 28 25 27 35 39 41 41 35 32 33 39 40 25 16 12 7 7 8 9 7 358 354 351 350 351 345 345 342 337 336 315 328 334 318 301 300 340 357 301 319 339 340 336 338 331 333 334 323 316 325 336 336 332 331
110 114 115 122 130 139 158 169 173 171 162 155 145 140 123 106 103 78 71 59 29 25 21 19 24 32 37 32 27 30 32 32 32 32 34 32 30 35 38 39 40 40 39 36 31 27 19 13 10 7 5 2 3 7 1 354 349 348 349 344 344 343 339 337 318 330 337 304 307 306 324 340 304 315 334 343 341 342 333 332 330 317 315 331 338 335 333 332
109 113 116 126 132 142 158 156 158 157 145 136 126 120 111 94 82 77 72 43 29 24 24 29 29 32 34 32 35 37 36 34 32 32 33 31 28 24 25 24 20 21 25 29 28 20 10 8 7 5 3 358 356 360 0 357 351 347 348 346 346 345 343 338 324 337 351 292 313 308 315 322 273 300 332 346 345 344 334 332 333 326 328 335 338 339 341 341
102 105 110 114 117 123 126 123 133 136 132 126 109 105 104 85 66 58 54 33 29 20 24 32 32 36 38 36 38 37 36 35 31 31 30 27 26 22 23 22 17 13 10 13 20 18 9 7 6 2 0 358 354 352 354 357 355 347 346 351 353 349 347 341 325 336 262 287 307 309 313 309 275 296 335 347 345 349 348 349 351 344 340 339 338 340 343 345
92 93 93 92 92 92 91 93 96 104 118 115 102 102 97 83 61 45 47 54 52 33 30 32 32 39 42 40 41 37 35 36 32 32 30 27 29 28 28 25 21 18 10 4 9 12 8 4 4 1 359 360 354 347 346 348 350 347 347 352 352 360 355 325 298 310 285 297 307 310 309 298 291 313 341 339 340 350 359 3 352 344 348 341 330 326 327 331
84 82 80 79 78 79 82 84 85 92 98 95 106 111 88 79 68 58 56 52 58 53 42 41 40 41 40 40 42 37 35 36 32 31 29 25 26 27 27 25 21 18 12 5 4 9 5 354 356 357 357 358 354 348 339 336 342 342 345 344 330 325 328 280 272 269 284 295 302 306 303 288 304 321 329 326 322 312 308 314 316 318 327 328 320 317 320 322
82 79 79 77 75 79 82 82 84 85 85 91 107 94 81 79 77 68 59 51 60 64 50 51 52 49 46 43 41 38 35 34 31 29 28 25 25 24 22 22 19 14 11 6 358 1 356 348 353 355 356 354 350 350 342 335 340 338 339 337 323 320 303 272 273 274 279 290 297 300 293 290 301 311 319 312 294 286 288 298 306 306 311 317 317 319 323 324
83 80 78 76 76 79 78 78 83 83 88 109 97 77 77 82 80 71 65 61 64 67 61 55 50 48 48 45 42 39 35 31 30 29 27 25 25 23 17 17 16 11 9 5 356 353 337 343 357 360 355 353 349 352 349 338 337 334 334 333 323 320 308 282 278 282 284 285 286 288 291 302 310 313 313 296 286 294 306 317 322 319 314 316 321 327 331 330
84 79 76 75 75 74 75 80 84 83 89 121 78 78 81 82 78 76 73 68 66 65 61 54 48 45 46 44 42 40 35 32 30 28 27 25 21 20 16 13 12 9 7 2 357 351 331 333 352 1 355 352 349 350 351 345 337 333 332 330 324 319 313 292 276 300 304 279 284 290 299 325 343 329 316 299 296 310 323 333 336 330 324 325 332 337 340 338
84 81 77 75 72 69 70 72 77 83 88 60 76 83 85 82 79 79 75 70 66 62 57 55 53 47 46 46 42 39 37 34 32 29 27 23 17 17 15 11 8 6 5 360 354 350 337 328 341 354 352 351 352 350 349 350 342 333 330 329 324 311 306 297 277 301 300 279 290 293 300 336 28 359 350 340 331 330 331 336 340 339 339 339 339 340 340 342
85 84 79 75 72 71 68 68 80 96 73 67 78 85 85 84 82 78 73 69 65 60 56 57 54 48 48 46 42 40 37 34 32 29 25 20 16 14 12 10 5 1 359 357 351 347 342 324 327 342 347 347 351 350 345 344 340 333 330 330 325 306 299 297 289 287 278 273 292 293 300 345 50 0 2 358 353 350 344 343 346 347 347 344 342 341 339 340
88 86 80 76 75 71 70 79 89 66 51 67 79 86 87 87 82 76 73 67 64 62 60 58 54 51 48 44 43 41 37 35 31 27 24 18 14 12 9 6 0 357 355 353 350 345 343 326 315 332 342 344 347 346 340 337 336 332 327 328 327 317 311 305 295 292 281 263 244 288 295 203 184 353 357 353 354 355 351 349 348 347 345 341 340 338 336 335
87 82 79 79 74 67 69 88 63 39 57 74 83 86 87 85 81 77 73 67 65 65 62 60 56 53 48 43 42 38 36 36 29 25 23 15 12 10 5 1 356 355 352 348 348 346 342 329 314 325 335 336 338 341 339 337 336 331 323 325 328 321 315 306 293 297 294 281 270 274 281 245 263 335 348 346 348 349 349 349 346 344 343 340 337 334 332 331
80 76 78 77 74 69 64 65 58 55 70 81 82 84 85 83 81 78 75 71 68 65 61 59 55 51 48 41 37 32 31 30 25 22 17 10 10 4 359 358 355 353 350 344 344 344 341 333 320 323 327 327 331 339 342 340 335 330 324 323 325 321 314 298 281 296 295 288 284 279 273 253 258 301 335 338 339 341 343 344 344 343 342 340 337 334 332 330
71 71 75 72 72 72 57 56 64 67 75 80 82 85 84 82 82 79 76 73 68 64 59 55 50 46 42 35 30 26 22 22 21 17 11 5 4 359 356 355 351 350 349 343 339 338 339 337 325 323 327 328 333 340 342 340 334 328 323 321 318 317 313 298 285 290 288 285 286 279 262 261 267 294 317 321 322 325 330 336 339 340 341 341 341 339 337 335
63 70 74 68 67 68 57 57 64 69 77 81 83 85 85 85 83 78 75 72 66 62 56 51 47 40 34 28 24 19 14 14 13 10 7 3 357 356 354 351 349 349 346 342 339 334 336 336 326 322 327 331 335 340 339 337 332 325 322 322 321 318 317 308 299 297 285 281 288 281 261 278 285 294 300 303 306 310 318 328 333 337 340 342 342 342 341 340
59 71 73 70 67 64 62 62 61 67 79 83 83 85 87 85 82 76 71 67 62 56 51 45 40 34 29 22 19 16 10 7 4 3 2 358 354 354 352 349 348 348 347 345 339 334 333 331 325 319 307 315 321 322 324 324 322 319 321 325 324 319 315 311 308 301 284 288 296 288 289 301 300 303 307 314 319 322 325 329 332 335 338 340 340 340 341 340
59 71 77 79 73 61 64 70 69 73 81 85 85 87 85 81 79 74 66 61 55 49 44 38 30 25 21 15 14 13 9 4 0 358 357 355 354 353 350 349 350 350 351 346 339 336 332 327 327 321 306 305 308 310 317 319 313 314 320 321 318 314 311 311 311 300 294 303 297 282 310 323 322 325 330 333 335 335 334 333 335 337 337 337 338 338 339 339
65 75 80 82 76 67 70 76 77 78 81 83 86 85 81 77 73 68 62 55 48 40 33 27 19 12 11 10 10 9 6 4 1 357 355 353 352 351 350 351 353 355 355 347 341 337 329 326 331 327 318 319 319 319 325 325 318 318 319 312 312 313 314 321 327 321 323 321 297 299 330 336 334 335 337 339 338 337 335 336 338 338 336 337 337 337 338 338
71 79 79 78 80 80 80 79 79 79 78 78 80 81 78 72 65 61 55 45 39 31 22 19 13 9 10 9 8 6 2 1 0 357 355 353 351 351 353 356 358 358 355 348 343 337 329 329 334 331 325 324 324 326 330 330 327 324 313 306 312 317 325 338 340 334 333 323 304 324 336 335 335 336 337 338 338 337 337 338 338 336 335 336 337 339 340 339
70 78 81 80 83 84 83 83 83 79 74 73 75 75 72 65 58 52 43 33 28 22 17 15 12 10 10 8 6 5 2 359 357 354 353 353 352 352 354 358 359 357 350 345 343 339 333 332 335 333 326 325 329 334 333 331 328 322 310 312 327 330 335 343 342 339 335 322 311 320 322 319 327 337 338 337 336 335 336 337 336 334 334 334 336 339 340 338
69 75 79 80 82 83 83 84 84 79 71 67 68 69 62 52 46 40 32 24 17 14 13 12 12 10 7 6 5 3 1 358 354 351 350 351 353 354 354 355 356 352 345 340 340 339 335 332 335 334 325 325 334 337 333 333 328 318 310 334 339 331 334 341 343 342 335 322 312 308 308 314 327 335 336 335 333 333 333 332 331 331 331 332 335 337 337 335
65 70 73 73 77 82 82 80 79 73 65 61 59 59 54 44 35 26 19 14 9 9 8 7 8 5 2 4 1 358 358 355 352 352 351 351 353 353 351 351 352 347 342 340 337 338 337 331 334 334 322 322 333 336 334 335 328 311 312 345 347 345 344 345 346 344 335 318 306 305 317 329 334 334 333 333 333 332 330 328 327 327 328 332 335 335 334 332
62 65 64 59 70 81 79 72 68 60 56 57 52 47 43 33 24 16 12 10 4 3 4 2 1 360 359 359 358 356 356 354 353 354 355 355 355 353 352 354 352 344 339 341 338 338 338 332 331 331 316 316 329 335 332 333 329 316 335 355 354 351 348 346 346 347 343 321 302 308 326 331 331 332 333 333 334 332 328 326 327 328 330 333 334 332 332 332
Height
3121 3122 3123 3123 3124 3125 3126 3127 3128 3129 3129 3130 3131 3131 3132 3132 3133 3133 3134 3134 3134 3134 3134 3134 3134 3134 3134 3133 3134 3133 3133 3133 3133 3133 3132 3132 3132 3132 3131 3130 3130 3129 3129 3129 3129 3128 3128 3127 3127 3127 3126 3126 3126 3126 3125 3124 3123 3122 3121 3120 3118 3116 3115 3114 3114 3112 3111 3110 3109 3108 3107 3106 3105 3103 3101 3100 3098 3098 3096 3095 3093 3091 3091 3089 3089 3089 3088 3087
3121 3122 3122 3123 3124 3125 3126 3127 3127 3128 3129 3130 3130 3131 3132 3132 3133 3133 3133 3133 3134 3134 3134 3134 3133 3133 3133 3133 3133 3133 3132 3132 3132 3132 3132 3132 3132 3131 3131 3130 3129 3129 3129 3128 3128 3128 3127 3127 3127 3126 3126 3125 3125 3125 3124 3123 3122 3121 3120 3117 3116 3115 3114 3113 3112 3111 3109 3108 3107 3106 3105 3103 3103 3101 3099 3098 3097 3095 3093 3093 3091 3089 3089 3087 3086 3086 3086 3085
3121 3121 3122 3123 3124 3125 3126 3127 3127 3128 3129 3129 3130 3131 3132 3132 3133 3133 3133 3133 3133 3133 3133 3133 3133 3133 3133 3132 3132 3132 3132 3132 3131 3131 3131 3131 3131 3131 3130 3130 3129 3129 3128 3128 3128 3127 3127 3127 3126 3126 3125 3124 3124 3123 3123 3122 3121 3120 3118 3116 3115 3114 3113 3112 3111 3110 3108 3106 3105 3104 3103 3101 3101 3099 3097 3096 3095 3093 3092 3091 3089 3087 3087 3085 3083 3083 3083 3083
3121 3121 3122 3123 3124 3125 3126 3126 3127 3128 3128 3129 3130 3131 3131 3132 3133 3133 3133 3133 3133 3133 3133 3133 3133 3133 3132 3132 3132 3131 3132 3131 3131 3131 3131 3131 3131 3131 3130 3130 3129 3129 3128 3128 3127 3127 3126 3126 3125 3125 3124 3123 3122 3122 3121 3120 3119 3118 3116 3115 3114 3113 3112 3111 3110 3108 3106 3104 3103 3102 3101 3100 3099 3097 3096 3094 3092 3091 3090 3089 3087 3084 3084 3084 3081 3080 3080 3079
3121 3122 3123 3123 3124 3125 3125 3126 3127 3127 3128 3129 3130 3130 3131 3132 3132 3133 3133 3133 3133 3133 3133 3133 3133 3132 3132 3132 3132 3131 3131 3131 3131 3131 3131 3131 3131 3130 3130 3130 3129 3128 3128 3127 3126 3126 3125 3125 3124 3124 3123 3122 3121 3120 3120 3119 3118 3116 3115 3114 3113 3112 3110 3109 3108 3106 3105 3102 3101 3100 3099 3098 3097 3095 3094 3092 3090 3089 3088 3086 3085 3083 3082 3082 3079 3077 3076 3076
3121 3122 3123 3123 3124 3125 3126 3126 3127 3127 3128 3129 3130 3130 3131 3132 3132 3132 3133 3133 3133 3133 3133 3133 3132 3132 3132 3132 3132 3132 3131 3131 3131 3131 3131 3131 3131 3130 3130 3129 3128 3127 3127 3126 3125 3125 3124 3124 3123 3122 3122 3122 3121 3120 3119 3118 3116 3115 3114 3113 3112 3110 3109 3108 3107 3105 3103 3102 3100 3098 3097 3096 3095 3093 3092 3090 3087 3086 3085 3084 3082 3081 3080 3079 3078 3075 3074 3073
3121 3122 3123 3123 3124 3125 3126 3126 3127 3127 3128 3129 3129 3130 3131 3131 3132 3132 3132 3132 3132 3132 3132 3132 3132 3132 3132 3132 3132 3131 3131 3131 3131 3131 3130 3130 3130 3129 3129 3128 3127 3126 3126 3125 3125 3124 3123 3123 3122 3122 3121 3121 3120 3119 3118 3117 3115 3113 3112 3112 3111 3109 3108 3107 3106 3104 3102 3101 3099 3097 3096 3095 3093 3091 3089 3088 3086 3083 3082 3081 3080 3079 3078 3076 3075 3073 3072 3071
3121 3122 3123 3124 3124 3125 3126 3126 3127 3127 3128 3129 3129 3130 3130 3131 3131 3132 3132 3132 3132 3132 3132 3132 3132 3132 3132 3132 3131 3131 3131 3130 3130 3130 3130 3130 3129 3128 3128 3127 3126 3126 3125 3125 3124 3124 3123 3122 3121 3121 3120 3119 3118 3118 3117 3116 3114 3113 3111 3110 3110 3108 3107 3106 3105 3103 3101 3100 3098 3096 3095 3094 3092 3089 3088 3086 3084 3082 3080 3079 3077 3076 3075 3074 3072 3071 3069 3068
3121 3122 3123 3124 3125 3125 3126 3126 3127 3127 3128 3129 3129 3130 3130 3131 3131 3131 3131 3131 3132 3132 3132 3132 3132 3132 3132 3132 3131 3131 3130 3130 3130 3130 3130 3129 3128 3128 3127 3127 3126 3126 3125 3124 3124 3123 3122 3121 3121 3120 3119 3118 3117 3116 3115 3114 3113 3112 3111 3110 3109 3107 3106 3105 3103 3102 3100 3098 3097 3094 3093 3093 3091 3088 3087 3085 3083 3081 3079 3078 3076 3074 3073 3072 3070 3069 3067 3065
3121 3122 3123 3124 3125 3125 3126 3126 3127 3127 3128 3129 3129 3130 3130 3130 3131 3131 3131 3131 3132 3132 3132 3132 3132 3132 3132 3131 3131 3130 3130 3130 3130 3130 3130 3129 3128 3128 3127 3127 3126 3126 3125 3124 3123 3123 3122 3121 3120 3119 3118 3117 3116 3115 3114 3113 3112 3110 3110 3109 3108 3106 3105 3103 3102 3100 3098 3097 3095 3092 3091 3091 3089 3087 3085 3084 3081 3079 3077 3076 3074 3072 3070 3069 3067 3066 3065 3063
3121 3122 3123 3124 3125 3125 3126 3127 3127 3128 3128 3129 3129 3130 3130 3130 3131 3131 3132 3132 3132 3133 3133 3133 3133 3132 3132 3131 3131 3131 3131 3130 3130 3130 3129 3128 3128 3128 3127 3127 3126 3126 3125 3124 3123 3122 3121 3121 3119 3118 3117 3116 3115 3114 3113 3112 3111 3110 3109 3108 3107 3106 3105 3102 3101 3099 3096 3094 3093 3090 3088 3088 3089 3086 3084 3082 3079 3075 3073 3071 3070 3068 3066 3065 3064 3063 3062 3061
3122 3123 3124 3125 3125 3126 3127 3127 3128 3128 3128 3129 3129 3130 3131 3131 3132 3132 3132 3133 3133 3133 3133 3133 3133 3132 3132 3132 3132 3131 3131 3131 3130 3130 3129 3128 3128 3128 3127 3127 3126 3126 3125 3124 3123 3122 3120 3119 3118 3117 3117 3116 3115 3114 3113 3112 3111 3109 3108 3107 3106 3105 3104 3101 3099 3097 3095 3093 3091 3088 3084 3085 3087 3084 3082 3079 3075 3071 3068 3066 3065 3064 3062 3061 3060 3059 3058 3058
3123 3123 3124 3125 3126 3126 3127 3127 3128 3128 3129 3130 3130 3131 3131 3132 3132 3133 3133 3133 3133 3133 3133 3133 3133 3133 3133 3132 3132 3132 3132 3131 3130 3130 3129 3129 3128 3128 3128 3127 3127 3126 3125 3124 3122 3121 3120 3119 3118 3118 3117 3116 3115 3114 3113 3112 3111 3109 3108 3106 3105 3103 3103 3100 3097 3095 3094 3092 3090 3087 3082 3081 3083 3080 3077 3073 3070 3067 3064 3063 3061 3060 3058 3057 3056 3055 3054 3054
3123 3124 3125 3126 3126 3127 3127 3128 3129 3129 3130 3131 3131 3132 3132 3133 3133 3133 3134 3134 3134 3134 3134 3134 3133 3133 3133 3133 3133 3133 3132 3131 3131 3130 3130 3129 3129 3129 3128 3127 3127 3125 3125 3124 3122 3121 3120 3120 3119 3119 3118 3117 3116 3114 3113 3111 3110 3109 3107 3105 3103 3101 3100 3099 3096 3094 3092 3090 3088 3086 3080 3078 3079 3076 3072 3068 3065 3063 3062 3061 3059 3057 3056 3055 3053 3052 3051 3051
3124 3125 3126 3126 3127 3128 3129 3129 3130 3131 3131 3132 3132 3133 3133 3134 3134 3134 3135 3135 3135 3134 3134 3134 3134 3134 3134 3134 3134 3133 3133 3132 3132 3131 3131 3130 3129 3129 3128 3127 3126 3125 3125 3124 3123 3122 3121 3121 3120 3119 3118 3117 3115 3114 3113 3111 3109 3107 3105 3104 3102 3100 3098 3097 3096 3092 3090 3088 3087 3084 3079 3076 3076 3074 3071 3067 3063 3062 3060 3059 3057 3056 3055 3053 3051 3050 3048 3048
3125 3126 3126 3127 3128 3129 3130 3131 3131 3132 3132 3133 3133 3134 3134 3134 3135 3135 3135 3136 3135 3135 3135 3134 3134 3135 3135 3135 3135 3134 3134 3133 3133 3132 3131 3131 3130 3129 3128 3127 3126 3125 3125 3125 3124 3123 3122 3121 3121 3119 3118 3116 3115 3113 3112 3110 3108 3106 3104 3103 3101 3099 3096 3095 3094 3091 3088 3086 3086 3084 3079 3075 3075 3072 3070 3067 3064 3061 3059 3058 3056 3054 3052 3051 3050 3048 3047 3046
3126 3127 3127 3128 3129 3130 3131 3132 3132 3133 3133 3134 3134 3134 3135 3135 3135 3136 3136 3136 3136 3136 3136 3136 3136 3136 3136 3136 3136 3136 3135 3134 3133 3133 3132 3131 3131 3130 3129 3128 3127 3126 3126 3125 3125 3124 3123 3122 3120 3119 3117 3115 3114 3112 3110 3107 3106 3105 3104 3102 3100 3099 3096 3093 3091 3090 3088 3085 3083 3083 3079 3075 3074 3071 3069 3067 3064 3061 3058 3056 3055 3052 3051 3050 3049 3047 3046 3044
3127 3128 3129 3130 3130 3131 3132 3133 3133 3133 3134 3134 3135 3135 3135 3135 3136 3136 3136 3136 3136 3137 3137 3138 3137 3137 3137 3138 3137 3136 3136 3135 3135 3134 3133 3132 3131 3131 3130 3129 3128 3127 3127 3126 3125 3124 3123 3122 3120 3119 3117 3115 3113 3111 3109 3108 3107 3105 3103 3101 3099 3098 3096 3093 3089 3087 3085 3083 3081 3080 3078 3075 3073 3070 3068 3066 3063 3061 3058 3056 3054 3052 3050 3048 3047 3046 3045 3044
3128 3129 3130 3131 3132 3133 3133 3134 3134 3134 3134 3135 3135 3136 3136 3136 3136 3136 3137 3137 3138 3138 3138 3140 3139 3138 3139 3139 3138 3137 3137 3137 3136 3135 3134 3133 3132 3132 3131 3130 3128 3128 3127 3126 3125 3124 3122 3121 3119 3117 3115 3113 3112 3111 3110 3110 3109 3107 3104 3102 3100 3097 3095 3093 3089 3086 3083 3079 3079 3078 3075 3073 3071 3069 3066 3064 3062 3060 3058 3056 3053 3052 3050 3048 3047 3045 3043 3042
3129 3130 3131 3132 3133 3134 3135 3135 3135 3135 3136 3136 3137 3137 3136 3137 3137 3138 3139 3140 3139 3139 3140 3141 3140 3140 3140 3140 3139 3139 3138 3137 3137 3136 3135 3134 3133 3132 3131 3130 3128 3127 3126 3125 3124 3123 3122 3120 3118 3116 3115 3114 3114 3113 3112 3111 3109 3107 3105 3103 3101 3096 3093 3091 3088 3086 3082 3078 3076 3076 3074 3073 3070 3068 3065 3062 3060 3059 3057 3055 3053 3051 3050 3048 3046 3045 3043 3041
3130 3131 3132 3133 3135 3136 3137 3137 3137 3138 3138 3138 3139 3139 3139 3139 3139 3140 3141 3141 3140 3141 3141 3142 3141 3142 3142 3141 3141 3140 3139 3139 3138 3137 3136 3135 3134 3133 3131 3130 3128 3127 3125 3124 3123 3123 3122 3119 3118 3118 3117 3116 3115 3114 3112 3110 3108 3106 3104 3101 3099 3095 3091 3089 3088 3086 3084 3079 3076 3075 3073 3073 3070 3067 3065 3061 3059 3057 3056 3054 3053 3051 3049 3047 3045 3044 3042 3040
3131 3132 3134 3135 3136 3137 3138 3138 3138 3139 3139 3140 3142 3142 3141 3141 3141 3141 3141 3141 3141 3142 3143 3143 3144 3144 3143 3143 3142 3141 3141 3141 3140 3138 3137 3136 3134 3133 3131 3130 3128 3127 3126 3125 3124 3123 3121 3120 3120 3120 3118 3116 3115 3114 3112 3111 3108 3105 3104 3100 3097 3094 3090 3087 3086 3086 3084 3080 3076 3073 3071 3070 3069 3067 3064 3061 3058 3056 3055 3054 3052 3050 3048 3046 3044 3042 3040 3039
3133 3134 3135 3137 3138 3139 3139 3140 3140 3140 3141 3142 3143 3143 3142 3142 3142 3142 3142 3142 3144 3145 3145 3146 3146 3145 3145 3144 3144 3143 3142 3141 3140 3139 3137 3136 3134 3133 3131 3130 3129 3128 3127 3125 3124 3123 3121 3121 3121 3120 3118 3117 3115 3113 3112 3110 3108 3104 3102 3099 3096 3094 3090 3086 3084 3084 3083 3079 3075 3072 3069 3068 3067 3066 3064 3061 3058 3056 3054 3053 3051 3049 3047 3045 3043 3042 3040 3039
3135 3136 3138 3139 3140 3140 3141 3142 3142 3142 3143 3144 3144 3144 3143 3143 3143 3143 3144 3144 3146 3147 3148 3148 3148 3147 3146 3145 3145 3144 3142 3141 3140 3138 3137 3135 3134 3132 3131 3130 3129 3128 3126 3125 3124 3123 3122 3122 3121 3120 3118 3116 3114 3112 3110 3108 3106 3104 3101 3098 3095 3093 3092 3088 3083 3081 3080 3079 3076 3072 3068 3065 3065 3064 3062 3060 3058 3056 3054 3053 3051 3049 3047 3045 3043 3041 3040 3038
3138 3139 3140 3141 3142 3143 3143 3144 3144 3144 3145 3145 3145 3145 3144 3144 3145 3145 3146 3146 3148 3149 3149 3149 3149 3147 3147 3146 3145 3143 3142 3141 3140 3138 3137 3135 3133 3132 3131 3130 3129 3128 3126 3125 3124 3123 3123 3122 3121 3120 3118 3116 3114 3111 3108 3106 3104 3103 3101 3099 3095 3092 3090 3087 3084 3080 3077 3076 3074 3071 3068 3063 3060 3062 3060 3058 3057 3055 3053 3052 3050 3049 3047 3045 3043 3042 3040 3039
3141 3142 3143 3143 3144 3144 3145 3145 3145 3146 3146 3146 3146 3146 3146 3146 3146 3147 3147 3147 3148 3150 3150 3150 3149 3148 3147 3146 3145 3143 3143 3141 3140 3139 3138 3135 3133 3132 3132 3131 3129 3128 3126 3125 3125 3124 3123 3122 3121 3120 3118 3115 3113 3110 3107 3105 3103 3101 3099 3097 3095 3092 3089 3086 3083 3080 3076 3074 3072 3071 3070 3064 3057 3059 3059 3055 3054 3053 3052 3051 3049 3047 3046 3044 3043 3041 3039 3038
3143 3143 3144 3145 3145 3145 3146 3146 3146 3147 3147 3147 3147 3147 3147 3147 3147 3147 3146 3147 3149 3151 3151 3151 3150 3149 3148 3147 3145 3144 3144 3143 3141 3140 3137 3135 3134 3134 3133 3131 3129 3128 3126 3125 3125 3124 3124 3122 3121 3119 3117 3114 3111 3108 3106 3105 3103 3100 3098 3096 3094 3091 3088 3085 3082 3080 3076 3073 3072 3070 3070 3066 3057 3056 3057 3053 3052 3051 3050 3049 3047 3045 3044 3042 3041 3040 3038 3036
3144 3145 3145 3146 3146 3146 3147 3147 3147 3148 3147 3148 3148 3148 3148 3148 3148 3148 3147 3149 3154 3154 3153 3153 3152 3150 3149 3148 3147 3145 3145 3144 3143 3140 3137 3137 3136 3135 3134 3131 3130 3128 3127 3126 3125 3124 3124 3122 3120 3118 3116 3113 3110 3108 3107 3105 3102 3100 3097 3095 3093 3090 3087 3084 3081 3079 3076 3072 3071 3069 3068 3066 3057 3053 3055 3053 3050 3049 3047 3046 3045 3043 3042 3040 3039 3037 3035 3034
3145 3146 3146 3147 3147 3147 3148 3148 3148 3148 3148 3148 3148 3148 3149 3148 3149 3148 3147 3152 3158 3157 3155 3155 3154 3152 3151 3150 3149 3147 3146 3145 3143 3141 3140 3139 3137 3136 3134 3132 3131 3129 3127 3126 3125 3124 3123 3121 3119 3116 3114 3112 3111 3110 3107 3105 3102 3099 3097 3095 3092 3090 3086 3083 3080 3078 3075 3070 3069 3068 3066 3066 3058 3051 3053 3052 3049 3048 3046 3045 3044 3042 3041 3039 3037 3035 3033 3031
3147 3147 3148 3148 3148 3148 3148 3148 3148 3148 3149 3149 3149 3149 3149 3149 3149 3148 3150 3155 3159 3158 3157 3157 3155 3154 3153 3152 3150 3148 3146 3145 3143 3143 3142 3141 3139 3137 3136 3134 3133 3132 3130 3128 3126 3124 3123 3121 3119 3116 3114 3112 3111 3110 3108 3105 3103 3099 3097 3093 3091 3089 3084 3082 3080 3077 3074 3068 3066 3066 3065 3066 3060 3051 3051 3052 3050 3049 3046 3043 3043 3042 3041 3039 3036 3034 3031 3028
3149 3149 3149 3149 3149 3149 3149 3148 3149 3149 3150 3151 3151 3150 3150 3150 3149 3149 3155 3159 3159 3159 3159 3157 3156 3154 3153 3152 3150 3148 3147 3145 3144 3143 3142 3140 3139 3136 3133 3131 3131 3130 3129 3128 3127 3125 3123 3121 3119 3116 3115 3112 3110 3109 3108 3106 3102 3099 3097 3092 3088 3085 3081 3079 3077 3076 3074 3067 3064 3065 3064 3064 3060 3052 3051 3053 3051 3050 3047 3044 3043 3042 3041 3038 3036 3033 3029 3026
3150 3150 3150 3150 3149 3150 3149 3149 3150 3151 3152 3152 3151 3151 3151 3150 3150 3154 3159 3160 3160 3160 3159 3157 3156 3155 3153 3152 3150 3149 3147 3145 3144 3143 3141 3139 3137 3134 3132 3131 3129 3127 3126 3126 3126 3126 3124 3122 3120 3117 3115 3112 3109 3107 3106 3105 3102 3100 3097 3093 3089 3086 3083 3080 3078 3077 3075 3066 3063 3065 3063 3060 3056 3051 3052 3054 3053 3051 3047 3043 3041 3039 3035 3032 3029 3025 3021 3019
3151 3151 3151 3151 3151 3151 3151 3152 3152 3152 3153 3153 3152 3153 3150 3149 3154 3160 3160 3160 3161 3161 3159 3158 3157 3156 3155 3153 3151 3149 3148 3147 3146 3144 3142 3141 3139 3136 3135 3134 3132 3131 3129 3127 3126 3125 3122 3120 3119 3118 3115 3113 3110 3107 3104 3102 3101 3100 3097 3094 3093 3092 3090 3087 3083 3081 3075 3063 3058 3063 3063 3056 3051 3051 3054 3055 3051 3047 3041 3037 3035 3032 3028 3024 3020 3016 3013 3012
3153 3153 3153 3153 3153 3153 3153 3153 3153 3153 3154 3153 3154 3154 3150 3151 3159 3163 3161 3161 3162 3161 3161 3159 3158 3157 3155 3153 3152 3151 3150 3148 3147 3146 3144 3142 3140 3138 3138 3136 3135 3133 3131 3129 3127 3125 3123 3120 3118 3117 3115 3113 3111 3109 3106 3103 3102 3100 3098 3096 3094 3094 3094 3091 3086 3082 3076 3065 3056 3057 3059 3053 3050 3053 3054 3051 3047 3043 3038 3034 3031 3028 3024 3021 3017 3014 3011 3009
3155 3155 3156 3156 3155 3155 3155 3155 3155 3155 3155 3155 3156 3153 3150 3155 3162 3163 3162 3163 3162 3162 3162 3161 3160 3159 3156 3155 3154 3152 3151 3150 3148 3147 3144 3142 3140 3139 3138 3137 3135 3134 3131 3129 3127 3126 3125 3123 3120 3118 3116 3113 3111 3110 3108 3104 3102 3101 3099 3097 3095 3094 3093 3090 3085 3080 3078 3071 3059 3054 3054 3051 3052 3053 3050 3046 3042 3038 3033 3029 3026 3024 3021 3017 3014 3011 3008 3006
3158 3158 3158 3157 3157 3157 3157 3156 3157 3156 3156 3157 3156 3153 3153 3160 3164 3163 3164 3164 3163 3163 3162 3161 3161 3159 3158 3157 3155 3154 3152 3151 3149 3147 3145 3143 3142 3141 3139 3137 3136 3134 3132 3130 3128 3126 3124 3122 3121 3119 3117 3115 3112 3110 3109 3105 3103 3101 3099 3097 3095 3094 3091 3087 3083 3079 3078 3074 3062 3054 3051 3050 3050 3048 3042 3040 3036 3030 3028 3025 3023 3022 3017 3014 3011 3008 3006 3004
3159 3159 3159 3159 3159 3159 3158 3158 3158 3158 3159 3159 3156 3155 3159 3163 3164 3164 3165 3165 3164 3164 3163 3162 3161 3160 3159 3158 3157 3155 3154 3152 3150 3148 3146 3145 3143 3142 3141 3138 3137 3135 3133 3131 3129 3127 3123 3118 3118 3118 3116 3115 3112 3110 3109 3107 3104 3101 3099 3097 3094 3092 3089 3086 3083 3078 3077 3073 3061 3054 3052 3050 3048 3043 3037 3035 3030 3026 3025 3023 3020 3018 3013 3010 3008 3007 3004 3001
3161 3161 3161 3161 3161 3161 3161 3161 3160 3160 3162 3160 3157 3159 3163 3165 3165 3166 3166 3166 3166 3165 3164 3163 3163 3162 3161 3159 3158 3157 3155 3153 3151 3149 3147 3146 3144 3144 3142 3140 3138 3136 3135 3133 3130 3128 3124 3116 3114 3116 3115 3113 3112 3109 3107 3106 3104 3101 3099 3097 3094 3091 3087 3085 3082 3078 3076 3071 3061 3054 3053 3051 3049 3044 3039 3036 3031 3027 3023 3020 3018 3015 3011 3008 3005 3003 3000 2997
3163 3163 3163 3163 3163 3163 3163 3163 3163 3163 3163 3160 3159 3162 3165 3166 3167 3168 3168 3168 3167 3166 3165 3164 3164 3163 3162 3161 3159 3157 3155 3153 3152 3150 3149 3147 3146 3145 3144 3142 3140 3138 3136 3134 3131 3129 3126 3120 3113 3113 3115 3112 3110 3108 3104 3103 3102 3100 3097 3095 3093 3091 3087 3083 3079 3076 3074 3068 3061 3055 3051 3050 3047 3044 3041 3038 3033 3029 3025 3021 3019 3016 3012 3008 3004 3000 2996 2993
3166 3165 3164 3165 3165 3165 3166 3167 3167 3166 3163 3161 3162 3165 3167 3168 3169 3169 3169 3169 3168 3167 3167 3166 3165 3164 3163 3162 3160 3158 3156 3155 3153 3152 3150 3149 3147 3145 3144 3142 3141 3139 3137 3134 3132 3128 3127 3123 3115 3110 3111 3110 3109 3108 3105 3102 3099 3097 3095 3092 3091 3089 3086 3082 3076 3073 3071 3065 3060 3056 3050 3047 3044 3041 3039 3037 3033 3030 3027 3023 3020 3016 3012 3007 3003 2999 2994 2991
3169 3167 3166 3167 3167 3167 3168 3169 3169 3167 3164 3165 3166 3167 3169 3170 3170 3171 3171 3170 3169 3169 3168 3167 3166 3165 3164 3162 3161 3159 3158 3156 3155 3153 3151 3150 3147 3145 3144 3142 3140 3139 3136 3134 3132 3129 3126 3123 3116 3109 3107 3107 3107 3107 3104 3101 3098 3096 3093 3090 3089 3086 3084 3081 3073 3069 3068 3062 3058 3054 3047 3041 3040 3038 3036 3034 3031 3028 3026 3022 3019 3015 3010 3005 3001 2997 2993 2988
3171 3168 3168 3169 3168 3168 3170 3171 3170 3168 3167 3168 3169 3169 3171 3171 3171 3172 3171 3171 3170 3170 3169 3168 3167 3166 3165 3163 3162 3160 3159 3157 3156 3154 3153 3151 3149 3147 3145 3143 3140 3138 3136 3133 3131 3129 3125 3121 3116 3110 3106 3105 3105 3103 3100 3098 3095 3093 3091 3088 3087 3085 3082 3080 3071 3065 3063 3057 3053 3051 3044 3037 3036 3034 3032 3030 3028 3026 3022 3018 3014 3010 3007 3002 2997 2993 2989 2985
3172 3170 3170 3171 3170 3170 3173 3172 3171 3171 3170 3170 3171 3171 3172 3172 3172 3173 3172 3172 3171 3170 3170 3169 3168 3167 3165 3164 3163 3161 3160 3159 3157 3156 3154 3152 3151 3149 3146 3144 3141 3138 3135 3132 3129 3127 3125 3121 3115 3109 3103 3099 3098 3097 3097 3095 3093 3090 3086 3084 3083 3081 3079 3076 3069 3063 3058 3051 3049 3049 3040 3033 3032 3031 3029 3026 3023 3021 3017 3013 3008 3003 2999 2995 2991 2987 2983 2979
3173 3172 3172 3173 3172 3173 3174 3174 3173 3173 3172 3172 3173 3173 3174 3174 3174 3174 3173 3173 3172 3172 3171 3170 3169 3168 3166 3165 3164 3162 3161 3159 3158 3156 3155 3153 3151 3149 3147 3144 3141 3138 3135 3131 3129 3126 3124 3121 3117 3112 3105 3097 3092 3090 3091 3090 3089 3087 3083 3080 3079 3077 3073 3069 3064 3061 3055 3047 3047 3045 3035 3029 3029 3027 3024 3020 3016 3013 3010 3007 3002 2997 2992 2989 2985 2982 2978 2974
3175 3174 3174 3174 3175 3176 3175 3175 3175 3174 3174 3174 3175 3175 3175 3175 3175 3175 3175 3174 3173 3173 3172 3171 3170 3169 3168 3167 3165 3164 3162 3160 3158 3157 3155 3154 3152 3149 3147 3144 3141 3138 3135 3131 3128 3125 3122 3120 3117 3115 3113 3108 3101 3096 3093 3090 3088 3085 3080 3078 3076 3073 3070 3065 3060 3057 3051 3044 3044 3041 3032 3028 3027 3023 3020 3017 3013 3009 3005 3002 2998 2993 2988 2984 2981 2977 2974 2970
3177 3176 3176 3176 3178 3178 3176 3176 3177 3176 3176 3176 3176 3177 3177 3177 3176 3177 3176 3175 3175 3174 3173 3172 3171 3170 3169 3168 3167 3165 3163 3161 3159 3157 3156 3154 3151 3149 3146 3143 3140 3138 3135 3131 3128 3124 3120 3117 3115 3113 3112 3111 3106 3101 3098 3095 3089 3084 3078 3074 3071 3068 3065 3061 3056 3053 3048 3044 3041 3039 3033 3028 3024 3021 3018 3014 3010 3006 3002 2998 2994 2989 2984 2979 2976 2973 2969 2966
3179 3178 3178 3178 3179 3179 3178 3178 3179 3178 3178 3178 3178 3178 3179 3178 3178 3178 3177 3176 3176 3175 3174 3173 3172 3171 3169 3168 3166 3165 3163 3162 3160 3158 3155 3153 3151 3149 3146 3143 3140 3137 3134 3131 3127 3124 3120 3115 3112 3109 3106 3105 3102 3097 3095 3093 3088 3082 3077 3071 3068 3064 3060 3057 3054 3051 3048 3044 3039 3036 3033 3029 3023 3020 3016 3012 3008 3004 2999 2995 2990 2984 2980 2975 2971 2968 2964 2960
3181 3180 3180 3180 3179 3181 3181 3180 3180 3180 3180 3180 3179 3179 3180 3180 3179 3179 3178 3177 3176 3175 3175 3173 3172 3170 3168 3166 3165 3163 3161 3159 3158 3156 3154 3151 3148 3146 3143 3141 3138 3135 3133 3131 3127 3124 3119 3114 3111 3106 3099 3098 3098 3094 3091 3089 3085 3080 3074 3068 3065 3062 3058 3056 3054 3051 3048 3045 3040 3035 3032 3028 3023 3019 3014 3010 3005 3000 2996 2991 2986 2980 2976 2972 2968 2964 2960 2956
3182 3182 3182 3181 3181 3182 3182 3182 3182 3182 3182 3181 3181 3181 3181 3181 3180 3180 3179 3178 3177 3176 3175 3173 3172 3170 3168 3166 3165 3162 3159 3157 3154 3153 3151 3149 3146 3142 3140 3138 3136 3134 3132 3130 3127 3123 3118 3113 3110 3104 3095 3092 3093 3091 3087 3085 3081 3076 3070 3066 3064 3062 3058 3056 3053 3050 3048 3044 3040 3035 3030 3027 3022 3017 3012 3007 3003 2997 2992 2988 2983 2978 2974 2969 2965 2960 2956 2953
3184 3184 3183 3183 3183 3183 3183 3183 3183 3184 3183 3183 3182 3182 3182 3182 3181 3180 3179 3178 3177 3176 3175 3173 3172 3170 3169 3167 3165 3163 3161 3158 3156 3153 3149 3147 3145 3141 3139 3136 3134 3132 3130 3128 3126 3122 3118 3112 3109 3104 3092 3086 3088 3088 3083 3082 3078 3071 3067 3065 3063 3060 3057 3055 3052 3049 3046 3043 3038 3033 3027 3022 3018 3014 3009 3004 2999 2992 2986 2982 2979 2975 2971 2966 2961 2956 2953 2949
3186 3185 3185 3185 3184 3184 3185 3185 3185 3185 3184 3184 3184 3183 3183 3182 3181 3181 3180 3179 3177 3176 3175 3173 3172 3171 3169 3167 3165 3163 3162 3159 3157 3154 3150 3147 3144 3141 3139 3136 3132 3129 3128 3126 3123 3121 3118 3111 3107 3104 3093 3083 3083 3083 3078 3077 3075 3068 3064 3062 3061 3059 3057 3054 3052 3048 3044 3039 3034 3029 3023 3017 3013 3009 3005 3000 2995 2988 2982 2977 2974 2971 2967 2962 2957 2952 2948 2944
3188 3187 3187 3187 3186 3185 3186 3186 3186 3186 3185 3185 3184 3184 3183 3183 3182 3181 3180 3178 3177 3176 3175 3173 3172 3170 3168 3166 3165 3162 3160 3158 3155 3152 3150 3147 3144 3141 3138 3135 3132 3129 3126 3124 3120 3118 3116 3110 3105 3103 3094 3082 3081 3081 3075 3072 3070 3065 3064 3062 3060 3059 3056 3052 3049 3046 3042 3037 3030 3024 3020 3016 3012 3007 3000 2995 2991 2985 2979 2974 2971 2966 2962 2958 2953 2949 2944 2939